Location: Ferintosh
(52.7647°N, 112.9692°W)
Time: 15:53:45
(UTC+00:00)

Transit 2A - Pass Details

Date: 21 May 2024
Orbit: 592 x 959 km, 66.7° (Epoch: 23 June)

Event Time Altitude Azimuth Distance (km) Brightness Sun altitude
Rises 08:46:31 0° 260° (W) 3,021 - -15.0°
Exits shadow 08:46:47 - 261° (W) 2,922 8.7 -15.0°
Reaches altitude 10° 08:49:01 10° 272° (W) 2,164 8.2 -14.9°
Maximum altitude 08:53:19 29° 333° (NNW) 1,353 7.7 -14.6°
Drops below altitude 10° 08:58:02 10° 33° (NNE) 2,385 9.9 -14.4°
Sets 09:00:55 0° 44° (NE) 3,387 10.7 -14.2°
